Temp
61 61 60 60 60 60 60 60 60 61 61 62 62 62 62 62 62 78 85 91 90 72 75 96 96 97 98 94 97 96 80 77 81 82 84 91 88 94 95 91 91 92 90 91 93
60 60 60 60 60 60 60 60 60 60 61 61 61 61 61 61 78 87 92 81 73 75 91 92 90 94 90 91 93 86 79 81 89 89 85 89 91 92 89 88 87 88 91 89 91
60 60 60 60 60 59 59 59 60 60 60 60 60 61 61 65 81 92 75 77 73 79 98 98 97 93 87 92 90 87 77 86 87 90 91 89 89 92 88 84 89 86 90 89 90
60 60 60 59 59 59 59 59 59 60 60 60 60 60 61 76 74 91 75 74 74 92 96 96 93 88 84 84 92 82 87 87 88 91 90 88 91 87 88 89 93 92 93 92 88
60 60 59 59 59 59 58 59 59 59 59 59 60 60 71 76 80 95 76 76 87 87 89 91 89 88 83 87 89 83 84 88 92 92 91 92 86 87 88 93 94 93 91 90 89
60 60 59 59 59 59 58 58 58 58 58 59 60 60 67 65 92 97 93 90 91 88 89 92 91 93 88 87 85 88 89 89 90 90 90 85 86 85 89 91 90 90 89 88 88
59 59 59 59 59 59 59 58 58 58 59 60 61 67 71 71 96 99 96 94 96 92 87 93 95 91 89 84 92 90 82 86 87 88 86 89 80 82 90 91 88 86 88 89 89
58 58 59 59 59 59 59 58 58 58 59 61 62 72 67 90 97 92 96 94 96 98 94 96 95 91 89 92 88 83 83 75 86 87 87 84 73 87 92 89 86 88 89 88 88
58 58 58 58 59 59 58 57 58 60 61 62 67 72 71 88 85 93 97 91 93 94 96 97 94 85 87 80 78 79 71 74 78 88 85 82 76 87 91 89 86 87 88 87 86
58 58 57 58 58 58 57 57 62 62 64 74 80 69 77 78 90 92 96 94 88 88 85 85 84 79 80 78 66 71 73 76 75 82 83 80 79 86 89 88 87 87 87 87 85
58 58 57 57 58 57 59 71 71 67 73 72 74 73 84 88 91 89 93 89 88 83 73 80 75 70 75 79 80 79 77 75 80 85 81 78 78 83 87 88 87 87 87 86 85
57 57 57 57 57 57 62 63 74 68 64 75 77 80 85 87 78 85 92 80 78 72 78 76 69 80 82 82 79 78 75 75 80 84 80 77 76 82 85 86 87 87 87 86 85
56 56 56 57 56 58 64 69 78 76 64 72 79 78 81 86 78 81 87 82 77 74 75 72 77 83 81 79 76 76 74 74 74 80 81 76 73 78 85 87 89 89 89 89 85
55 55 55 56 53 69 68 77 78 75 59 68 75 79 83 83 74 87 91 84 80 74 77 77 85 81 79 77 80 71 81 78 75 72 66 79 62 74 81 82 85 87 88 87 85
55 55 55 55 58 64 70 76 77 70 46 78 80 91 86 76 81 80 92 84 75 77 78 75 79 79 76 78 82 76 83 79 76 71 70 71 66 73 81 78 81 85 88 87 86
55 55 55 60 64 67 72 74 70 54 46 70 79 74 76 77 78 87 81 87 86 80 81 80 89 85 83 85 84 84 79 78 76 72 60 69 68 69 76 78 81 85 87 87 86
55 55 56 63 59 68 66 65 49 48 71 69 71 75 75 72 73 78 74 73 71 66 68 77 80 86 87 79 83 81 73 61 57 58 57 73 68 71 80 83 83 83 86 86 85
54 54 58 65 70 65 58 53 41 58 64 77 76 75 70 76 73 74 73 69 76 76 73 68 65 80 86 80 76 76 72 63 50 55 63 73 62 73 83 85 86 86 85 86 83
52 55 60 64 68 62 46 36 47 60 70 70 74 69 69 75 73 72 73 71 76 78 69 69 70 84 84 85 83 75 68 78 67 69 65 68 73 79 82 83 84 84 82 81 82
48 50 54 66 65 54 37 36 53 65 69 73 64 70 65 71 70 69 71 77 75 80 83 78 67 81 83 85 84 80 81 66 69 53 52 64 66 70 74 79 82 81 80 80 82
45 42 60 66 57 43 31 41 52 63 68 60 62 63 70 71 73 71 72 78 81 80 82 80 75 74 81 74 73 75 73 73 72 69 58 56 65 79 78 81 80 83 83 82 82
45 40 65 62 39 39 35 48 51 57 65 61 61 60 62 71 72 71 71 77 86 84 74 80 75 68 72 82 83 80 75 74 65 60 68 67 67 83 82 84 84 84 85 85 84
43 48 59 56 34 39 49 49 51 53 56 56 57 60 62 60 59 72 74 85 86 82 77 79 71 63 68 74 78 74 77 77 74 71 65 62 66 85 84 83 85 85 86 85 84
42 38 46 46 46 40 44 46 45 56 55 54 53 60 56 56 65 65 73 81 86 83 73 75 72 66 64 67 74 68 73 76 72 65 65 68 72 77 80 81 84 85 86 86 84
52 43 50 35 38 40 42 43 44 46 55 57 53 54 55 54 63 66 73 77 81 75 78 76 66 71 74 78 76 73 73 75 71 71 66 70 72 78 82 83 85 87 87 85 84
40 44 47 42 44 42 41 42 44 48 52 50 51 55 55 54 60 58 66 72 72 77 76 76 65 71 68 75 76 71 74 75 75 75 74 74 73 85 87 88 87 87 86 85 84
51 54 43 39 38 38 39 44 46 49 51 53 55 54 52 57 59 59 67 67 72 71 71 70 68 65 61 72 72 66 73 74 75 77 76 69 77 84 83 84 86 87 87 86 86
MSLP
1019.37 1019.08 1018.66 1018.35 1017.94 1017.30 1017.23 1016.86 1016.61 1016.42 1016.06 1015.83 1015.20 1014.56 1013.82 1013.72 1012.66 1012.31 1009.84 1008.25 1008.14 1009.28 1009.56 1008.83 1008.16 1007.73 1007.40 1006.62 1006.12 1005.67 1004.97 1003.37 1002.46 1001.97 1001.74 1002.00 1002.14 1002.19 1002.98 1003.77 1004.10 1004.71 1005.35 1006.05 1006.81
1019.39 1018.95 1018.54 1018.34 1017.87 1017.54 1017.35 1016.78 1016.85 1016.44 1016.10 1015.75 1014.88 1014.24 1013.84 1013.52 1011.91 1009.04 1007.40 1007.70 1008.68 1008.00 1009.16 1007.83 1007.16 1007.10 1006.59 1006.01 1005.35 1005.31 1004.36 1003.17 1002.65 1002.40 1002.54 1002.42 1002.14 1001.97 1002.52 1003.10 1003.69 1004.70 1005.57 1006.68 1006.98
1019.05 1018.64 1018.27 1018.07 1017.69 1017.50 1017.30 1016.98 1016.63 1015.91 1015.63 1015.00 1014.71 1014.29 1013.76 1013.35 1010.55 1006.49 1007.00 1007.12 1007.64 1008.05 1007.42 1006.88 1006.11 1006.19 1005.86 1005.19 1004.57 1004.39 1004.16 1003.64 1003.28 1003.09 1002.77 1002.62 1002.38 1002.26 1002.58 1002.74 1002.79 1003.54 1004.18 1005.74 1006.54
1018.62 1018.39 1018.17 1017.95 1017.61 1017.44 1016.91 1016.34 1015.93 1015.98 1015.80 1015.23 1014.96 1014.59 1013.79 1012.74 1008.70 1006.44 1007.37 1007.79 1007.70 1007.70 1007.32 1006.09 1005.59 1005.08 1005.06 1004.19 1003.90 1003.77 1003.81 1003.69 1003.36 1003.08 1002.68 1002.57 1002.41 1002.57 1002.70 1002.85 1003.13 1003.82 1004.25 1005.03 1005.90
1018.48 1018.24 1018.00 1017.76 1017.38 1016.94 1016.53 1016.41 1016.32 1016.06 1015.77 1015.30 1015.67 1015.19 1013.77 1011.02 1007.28 1006.46 1007.53 1007.96 1007.86 1008.10 1006.91 1005.62 1004.87 1004.43 1003.96 1003.68 1003.31 1003.30 1003.58 1003.39 1002.78 1002.57 1002.56 1002.51 1002.68 1002.61 1002.63 1002.64 1003.25 1003.82 1004.16 1004.64 1005.36
1018.35 1018.10 1017.93 1017.71 1017.35 1017.02 1016.71 1016.49 1016.33 1015.86 1015.46 1015.35 1015.51 1015.26 1013.66 1009.92 1006.57 1006.11 1006.67 1006.80 1006.81 1007.17 1006.24 1005.46 1004.40 1004.03 1003.54 1003.18 1002.95 1002.84 1002.53 1002.49 1002.26 1002.07 1002.17 1002.60 1002.44 1002.74 1002.51 1002.78 1003.10 1003.59 1003.93 1004.48 1005.05
1018.09 1017.86 1017.58 1017.21 1016.93 1016.56 1016.18 1015.92 1015.57 1015.33 1015.42 1015.40 1015.01 1014.46 1011.76 1007.71 1005.96 1005.22 1005.63 1005.44 1005.76 1005.90 1005.55 1005.23 1004.69 1003.95 1003.72 1002.92 1002.58 1002.31 1002.32 1002.18 1002.07 1001.88 1002.04 1002.30 1002.47 1001.97 1002.20 1002.09 1002.56 1003.27 1003.74 1004.04 1004.57
1017.81 1017.55 1017.27 1016.92 1016.51 1016.19 1015.84 1015.46 1015.00 1014.72 1014.52 1014.22 1014.17 1013.12 1009.45 1006.48 1005.95 1005.69 1005.14 1004.87 1004.94 1004.70 1005.02 1004.73 1004.87 1004.01 1003.14 1002.95 1002.52 1002.21 1002.06 1001.45 1000.80 1001.09 1001.72 1002.60 1001.62 1000.91 1001.40 1001.78 1002.17 1002.46 1002.88 1003.48 1004.22
1017.56 1017.25 1016.90 1016.62 1016.36 1015.90 1015.32 1014.79 1014.04 1013.65 1013.37 1013.37 1013.07 1011.28 1007.04 1004.50 1004.82 1004.19 1004.15 1003.97 1004.43 1004.54 1004.29 1004.29 1003.97 1003.72 1003.30 1002.60 1001.85 1001.69 1001.11 1000.73 1000.39 1000.28 1001.21 1001.72 1001.34 1000.67 1001.03 1001.14 1001.27 1001.84 1002.12 1002.87 1004.02
1017.28 1016.96 1016.65 1016.25 1015.85 1015.57 1015.23 1014.31 1012.60 1012.99 1012.66 1011.92 1010.13 1009.28 1005.86 1003.25 1002.88 1003.06 1003.11 1003.46 1003.71 1004.06 1004.21 1004.06 1003.54 1003.06 1002.68 1001.83 1000.32 1000.47 1000.09 1000.11 999.96 1000.07 1000.81 1000.93 1000.55 1000.24 1000.27 1000.57 1000.42 1000.89 1001.52 1002.11 1003.34
1017.07 1016.72 1016.48 1016.16 1015.81 1015.50 1015.00 1012.24 1010.90 1010.55 1009.33 1006.89 1005.50 1004.42 1002.17 1002.35 1002.44 1002.09 1002.19 1002.69 1003.24 1003.31 1003.01 1002.86 1002.17 1000.86 1000.34 1000.62 1000.54 1000.02 999.45 999.07 999.12 999.62 1000.02 1000.32 1000.38 1000.02 999.81 999.85 999.62 999.91 1000.54 1001.42 1002.71
1016.91 1016.54 1016.13 1015.76 1015.42 1015.22 1014.87 1012.19 1008.93 1009.83 1007.44 1005.76 1004.53 1003.13 1002.64 1002.20 1001.58 1001.53 1001.80 1002.00 1002.27 1001.53 1002.04 1001.67 1000.02 1000.03 1000.65 1000.40 1000.09 999.81 999.42 999.23 999.46 999.60 1000.24 1000.44 1000.24 999.73 999.37 999.00 998.88 999.12 999.79 1000.82 1002.32
1016.56 1016.24 1015.88 1015.53 1015.07 1014.51 1012.81 1010.39 1009.69 1009.47 1007.09 1003.27 1002.07 1001.35 1001.55 1001.55 1000.69 1000.17 1000.62 1000.99 1000.82 1000.60 1000.19 999.20 998.93 999.74 999.35 999.32 999.24 999.21 999.19 999.27 999.45 999.49 1000.01 1000.41 999.49 998.86 998.04 998.42 998.42 998.72 999.61 1000.15 1001.70
1016.15 1015.96 1015.65 1015.40 1015.03 1011.75 1010.31 1009.74 1009.99 1009.76 1005.84 999.94 998.72 997.85 999.34 1000.42 999.05 999.83 999.19 999.89 999.45 999.10 999.15 998.39 998.11 997.91 998.19 998.00 998.42 998.26 999.00 999.50 999.70 999.94 999.75 999.72 998.65 998.41 997.66 997.63 997.70 997.83 998.56 999.78 1001.22
1015.67 1015.53 1015.43 1015.34 1013.52 1011.31 1010.21 1010.28 1009.80 1009.35 1003.43 995.32 994.67 995.82 996.34 997.18 996.63 997.28 998.26 998.98 998.12 998.03 998.22 996.17 996.75 996.53 996.73 996.84 997.57 997.64 998.63 999.00 999.71 1000.24 1000.17 999.69 998.91 997.61 997.15 996.98 997.26 997.45 997.76 999.32 1000.69
1015.12 1015.10 1015.09 1014.17 1013.39 1011.90 1010.95 1010.52 1010.02 1006.60 999.15 994.50 993.81 994.80 995.03 995.80 995.97 995.26 997.27 997.87 997.98 997.12 996.64 996.11 995.95 995.67 995.56 996.40 997.04 997.90 998.61 999.18 999.56 1000.00 999.59 999.19 998.58 997.05 996.25 996.35 997.05 997.36 997.97 999.06 1000.49
1014.52 1014.60 1014.72 1013.41 1012.27 1012.10 1011.97 1010.43 1007.84 1001.77 996.42 993.54 993.12 993.72 993.72 994.04 995.26 995.20 995.97 996.24 995.56 995.75 994.57 994.96 994.32 994.77 994.86 995.63 996.67 997.38 998.09 998.69 999.37 999.29 998.49 997.97 997.63 996.67 996.62 996.69 997.20 997.70 998.11 999.23 1000.57
1013.93 1014.21 1013.58 1012.85 1012.04 1012.30 1012.02 1009.56 1004.19 997.78 995.15 992.44 992.39 992.98 992.65 992.83 993.91 994.05 994.25 994.64 994.88 994.34 993.59 993.30 993.28 993.34 993.63 994.58 995.36 996.41 997.65 997.73 998.02 997.54 996.61 996.87 996.92 996.35 996.45 996.95 997.62 998.01 998.76 999.33 1000.70
1013.48 1013.62 1012.50 1011.63 1011.61 1012.37 1012.20 1008.29 1001.66 997.33 995.60 993.92 992.52 992.03 992.18 991.71 992.33 993.12 992.21 992.43 992.74 992.84 992.16 991.91 991.84 993.03 993.42 994.58 995.12 995.60 996.71 997.62 997.76 997.19 996.69 996.25 995.92 996.18 996.49 996.96 997.14 997.86 998.96 999.79 1000.78
1013.15 1012.72 1011.22 1010.68 1011.32 1012.42 1011.90 1007.26 1002.28 999.60 996.95 994.80 993.33 992.45 991.57 991.07 991.40 991.50 991.34 990.86 991.41 992.07 992.29 991.05 991.68 991.79 992.85 994.25 994.77 994.71 996.31 997.10 997.30 997.15 996.62 995.80 995.32 995.08 996.06 996.18 996.74 997.73 998.90 999.95 1000.86
1012.83 1011.90 1009.38 1009.76 1011.64 1012.01 1010.20 1006.68 1004.09 1001.25 998.67 998.20 995.34 994.00 992.03 991.03 990.51 989.81 989.39 989.48 990.32 990.78 991.88 991.60 991.19 991.29 992.00 992.80 993.33 994.28 994.76 995.81 996.53 996.57 996.07 995.53 994.68 994.48 995.29 995.91 996.61 997.03 998.46 999.78 1000.62
1012.29 1010.74 1008.73 1010.19 1011.44 1010.69 1008.74 1005.66 1005.58 1002.71 1000.55 1000.37 999.10 997.07 994.33 991.81 990.19 989.86 988.61 988.32 988.60 989.68 990.51 990.43 991.20 990.86 990.83 991.95 993.27 993.62 994.18 995.00 995.66 996.33 995.96 995.14 994.62 994.78 995.65 995.92 996.44 996.75 997.77 999.34 1000.29
1011.71 1010.33 1010.03 1010.33 1010.15 1009.24 1007.57 1006.30 1005.61 1003.97 1001.94 1001.73 1000.06 998.89 997.02 994.61 992.29 989.15 988.54 988.02 988.13 988.77 989.11 990.70 990.78 991.03 990.85 992.21 992.59 992.99 993.52 994.33 995.20 995.76 995.07 994.99 994.50 994.29 995.04 995.84 996.34 996.61 997.35 998.75 999.92
1011.96 1010.39 1010.22 1010.59 1009.75 1009.17 1007.32 1005.78 1004.85 1004.33 1002.66 1002.98 1001.80 1000.05 999.16 996.37 993.71 990.48 988.40 987.95 987.83 988.43 989.25 990.80 990.36 990.33 989.08 989.86 991.79 992.71 992.89 993.73 994.60 994.70 995.10 994.45 993.82 994.19 994.80 995.35 995.80 996.33 997.11 998.18 999.41
1010.27 1010.03 1009.29 1009.69 1009.63 1009.25 1008.46 1007.02 1004.97 1003.41 1002.93 1002.33 1001.54 1000.83 999.41 996.88 993.58 991.43 989.37 988.60 988.40 988.93 989.38 989.99 990.08 990.48 990.41 990.35 991.21 991.81 992.40 992.72 993.12 993.81 994.03 994.04 993.72 993.65 993.81 994.45 995.16 995.68 996.69 997.69 998.83
1011.17 1010.57 1010.26 1009.80 1009.19 1008.86 1008.00 1006.60 1005.05 1003.46 1002.44 1002.05 1001.36 1000.42 999.51 998.04 995.76 993.91 991.89 989.82 988.62 989.25 988.98 989.73 990.13 990.68 990.64 990.69 990.33 991.03 991.67 992.12 992.37 992.80 993.39 993.55 993.20 993.12 993.34 993.95 994.34 995.04 995.95 997.03 998.05
1010.99 1010.82 1011.03 1009.77 1009.01 1008.14 1007.27 1005.92 1004.67 1004.14 1003.36 1003.00 1001.63 1000.31 1000.14 999.02 998.31 997.63 995.04 993.32 990.72 989.66 989.24 989.87 990.17 990.79 990.23 990.47 990.30 989.66 989.91 990.78 991.56 992.03 992.38 992.58 993.06 993.14 993.19 993.54 993.89 994.31 995.09 996.27 997.20
Wind_Speed
14 14 15 15 16 16 16 16 16 16 16 17 16 17 17 17 18 9 15 9 10 15 3 16 17 16 18 17 18 10 14 14 18 16 11 7 13 3 3 10 5 4 6 6 8
14 15 15 15 16 16 16 16 16 16 16 17 18 18 18 18 18 21 21 11 14 21 18 20 19 18 16 19 16 15 14 19 14 14 12 17 17 16 6 9 8 8 6 4 7
14 15 15 16 16 15 15 16 17 18 19 20 20 19 20 19 19 17 11 12 20 21 25 22 19 19 21 19 19 18 16 18 15 17 12 16 16 5 8 10 8 4 7 13 11
13 14 15 15 16 16 16 17 18 18 18 19 20 21 21 10 11 9 7 8 13 21 24 24 22 23 23 23 20 20 18 18 17 19 11 14 8 9 8 10 5 5 4 10 12
12 13 14 14 15 17 17 17 18 18 17 16 18 16 12 13 18 3 10 8 10 19 25 25 26 25 26 24 20 17 17 21 19 16 14 12 9 11 12 8 3 5 7 10 11
11 11 12 12 13 14 15 15 15 16 16 16 15 13 7 23 11 16 16 11 11 19 22 24 23 24 23 24 20 21 22 17 16 16 14 10 15 2 10 2 7 9 10 9 12
13 13 12 12 13 15 15 16 16 16 18 16 13 9 15 26 9 10 13 17 18 16 18 22 24 22 22 24 20 20 17 19 17 15 15 10 15 16 16 7 8 10 12 14 12
13 14 14 14 13 14 17 18 19 20 21 19 13 13 16 15 18 25 19 12 12 17 23 20 23 28 22 18 21 19 21 19 20 18 14 9 18 13 12 9 12 14 13 12 12
13 12 14 15 16 15 18 20 25 23 17 10 11 15 20 8 27 25 22 25 22 15 19 18 18 26 20 20 21 18 16 21 19 14 16 16 18 17 10 11 12 13 12 11 12
14 14 14 16 17 16 16 24 22 12 10 12 13 7 18 20 19 18 23 25 19 17 15 18 16 20 19 20 20 19 22 17 17 14 13 16 19 17 11 15 14 14 13 12 14
15 13 13 14 16 13 15 13 8 10 21 17 15 18 7 14 6 10 17 22 22 20 23 24 19 26 33 28 25 23 18 17 11 8 13 13 17 19 15 15 17 15 11 11 13
16 16 15 13 14 13 13 12 7 7 11 29 28 26 24 6 9 18 15 20 25 27 27 22 27 28 28 27 26 23 21 15 14 12 9 13 19 20 19 18 15 14 9 11 12
15 15 16 14 14 11 17 20 6 7 12 21 29 29 28 25 23 18 25 24 26 29 31 31 26 28 27 27 25 23 21 17 18 12 9 14 23 20 7 10 10 8 8 9 13
15 14 15 12 8 12 15 12 9 5 10 19 21 27 29 25 32 26 27 26 20 30 30 29 27 27 30 27 25 22 19 18 14 13 13 14 14 15 17 6 10 12 13 10 12
15 15 14 9 14 12 10 4 6 6 11 9 31 10 22 34 8 34 26 27 30 23 28 29 26 28 27 29 26 20 18 17 14 15 18 18 12 14 10 10 6 5 3 10 13
16 15 11 11 12 15 14 5 8 12 16 9 13 17 22 32 34 12 36 28 23 26 28 31 28 25 27 27 19 19 17 17 11 11 16 19 15 15 10 3 2 5 4 8 12
17 14 12 11 10 8 13 8 10 18 17 14 18 19 26 25 35 28 34 32 29 30 29 28 33 27 22 20 22 23 14 12 13 14 14 18 13 9 13 3 3 5 6 9 11
14 11 12 13 12 6 10 14 18 23 33 3 22 22 29 26 33 34 32 30 34 30 18 23 29 30 23 25 23 21 19 13 15 14 14 11 7 3 4 5 3 2 4 8 13
10 8 12 12 12 5 5 16 23 24 22 32 14 20 26 28 19 32 31 34 34 33 29 24 28 26 26 22 25 19 22 20 22 19 14 6 8 10 7 8 8 2 2 9 14
3 6 12 13 11 7 6 23 28 26 27 22 35 19 22 29 25 35 31 33 35 37 28 16 19 25 28 20 25 23 18 20 15 19 17 13 11 4 11 10 8 7 7 14 15
2 3 7 12 9 6 8 22 28 30 31 17 19 22 26 26 29 25 29 20 35 36 33 30 18 23 26 26 26 21 22 17 16 14 13 11 8 8 6 5 2 9 12 15 16
4 4 6 13 8 4 15 29 21 33 23 18 20 24 24 24 26 30 32 32 25 33 38 32 14 18 28 24 25 25 26 22 11 18 12 13 2 11 7 5 7 4 12 16 16
2 4 6 9 9 14 18 27 28 29 29 26 17 19 24 22 18 27 29 29 18 32 34 27 18 18 23 21 25 27 24 23 19 14 15 12 13 13 13 7 5 6 11 16 17
3 3 4 6 8 12 19 21 23 21 32 19 28 21 22 25 22 17 28 25 21 19 24 23 20 26 20 25 21 26 25 25 23 17 16 16 16 14 11 11 11 8 9 14 17
4 5 7 3 9 14 16 18 20 23 25 22 22 25 24 20 19 22 14 26 19 17 20 27 26 26 26 21 25 22 27 27 28 23 21 17 18 15 11 13 11 12 10 13 17
1 4 3 9 9 14 10 18 23 21 16 24 22 20 19 19 20 18 13 19 22 20 24 22 24 23 26 25 24 27 26 26 27 25 23 21 17 11 8 9 13 11 13 12 16
2 2 3 4 3 9 11 15 10 12 17 18 21 22 24 24 13 26 18 20 16 21 21 23 19 24 22 24 26 24 27 27 24 22 21 21 20 18 12 13 12 11 12 12 15
Wind_Direction
347 348 350 349 348 352 348 349 346 341 340 332 333 333 332 325 300 223 238 237 184 165 207 186 199 207 219 230 233 241 261 264 272 287 309 314 280 255 139 279 193 275 294 43 125
342 344 347 343 344 343 339 344 338 335 334 332 335 334 325 327 290 269 262 188 160 150 200 196 199 209 222 230 232 237 250 262 294 311 307 299 302 306 280 245 222 214 218 209 190
337 340 343 339 339 336 336 335 332 336 335 338 335 329 326 321 282 274 15 188 165 175 207 209 211 213 229 229 231 225 251 274 293 289 296 313 290 301 274 278 311 292 249 184 204
325 334 335 331 331 329 331 334 334 329 329 332 329 326 323 285 259 64 50 148 160 194 231 220 222 222 229 235 229 241 242 275 267 274 277 277 318 294 282 279 345 306 296 184 208
303 313 320 322 323 326 328 324 319 318 319 323 312 317 312 242 244 258 128 135 182 207 224 227 220 222 228 238 247 240 249 253 269 253 266 270 276 279 296 317 268 261 235 225 214
273 281 290 298 307 312 310 306 300 301 307 307 300 308 242 258 261 246 204 170 187 207 220 238 228 228 240 243 240 236 241 257 262 243 257 242 263 201 282 216 238 247 246 229 223
280 278 275 283 296 297 300 300 298 295 293 281 277 265 258 244 257 240 227 233 223 223 231 231 244 234 236 250 246 253 258 260 254 255 247 227 260 247 254 205 253 236 234 233 215
294 281 284 286 285 293 297 299 294 291 289 277 260 240 253 261 234 246 253 223 233 231 225 236 230 248 241 245 254 248 245 253 245 214 227 216 261 262 244 233 246 247 227 233 216
312 306 286 282 289 295 301 298 292 289 277 252 212 224 259 233 224 236 233 233 233 240 222 230 230 231 238 241 234 223 243 241 254 171 228 205 261 292 290 282 267 262 251 227 212
304 305 302 290 289 291 298 286 278 276 221 202 256 226 243 244 231 231 224 230 219 210 214 217 223 218 225 222 230 224 226 230 262 210 209 252 257 260 271 277 266 239 251 222 211
311 302 295 301 293 286 302 299 211 198 210 210 192 218 265 212 214 216 216 199 208 213 212 204 211 208 212 219 229 247 258 253 242 245 250 277 277 285 283 270 270 252 243 230 208
311 308 300 298 302 283 282 259 343 339 278 226 255 232 247 246 239 220 178 195 198 208 205 204 221 214 217 222 231 241 252 255 262 259 268 291 283 290 282 276 267 249 240 218 197
300 307 302 300 301 262 251 254 342 296 258 246 230 231 225 231 233 232 195 199 201 210 203 217 214 220 212 224 222 228 243 244 261 271 241 270 266 256 254 269 244 234 255 213 193
296 296 302 303 266 250 247 241 233 272 267 250 209 232 217 219 235 226 201 203 216 216 212 219 223 209 225 217 223 228 227 247 269 276 267 274 283 294 272 263 256 232 198 207 179
282 288 296 273 318 284 49 282 283 230 260 241 202 164 197 198 167 199 217 207 219 205 212 218 219 217 212 223 219 232 235 239 227 252 270 263 262 272 266 218 249 248 257 152 168
263 274 285 249 251 262 294 291 247 224 232 231 140 187 192 199 216 196 201 208 220 223 220 229 213 223 220 215 217 225 226 255 266 260 256 256 253 265 271 122 306 303 176 155 169
254 260 261 275 258 240 304 231 212 227 212 228 183 192 200 192 199 224 188 199 206 209 216 211 228 211 225 213 212 220 208 227 227 231 248 246 237 288 300 315 334 331 323 143 161
256 244 234 248 244 259 290 216 231 220 225 247 182 198 207 190 200 209 186 202 208 207 203 209 211 214 201 211 210 204 212 226 219 233 246 138 225 261 216 61 264 291 352 135 167
238 233 243 233 238 166 248 226 221 232 214 246 192 204 207 198 195 207 203 206 201 205 223 202 216 202 202 201 221 186 214 225 255 285 289 213 208 196 190 211 197 160 171 153 164
189 222 247 224 187 162 243 232 241 257 280 262 239 228 214 207 204 198 198 210 211 209 216 209 211 218 196 204 218 221 199 217 228 247 262 243 234 243 166 210 117 149 164 159 163
222 218 240 171 136 200 228 233 237 264 273 333 317 297 230 218 203 201 210 207 206 201 216 231 212 200 186 196 205 202 224 203 246 225 238 249 261 116 148 155 331 146 158 169 170
195 222 134 135 192 210 228 229 252 260 262 296 303 291 286 260 216 221 210 211 200 207 203 214 215 228 199 199 209 214 210 206 217 221 251 276 242 111 159 204 181 193 154 172 178
214 256 141 187 222 227 246 247 240 265 258 262 273 294 326 303 294 220 232 219 189 203 198 203 211 219 197 201 201 223 210 217 219 245 235 220 236 181 165 195 191 237 152 171 181
217 250 167 212 235 272 272 268 249 254 254 266 278 283 287 277 265 273 211 223 222 207 202 200 211 212 215 198 191 207 222 204 217 217 229 243 261 153 173 196 212 184 164 180 184
260 249 297 239 238 247 254 282 286 235 255 247 248 259 267 284 258 250 235 220 200 204 206 191 219 207 228 204 199 204 214 216 212 219 224 227 233 246 214 190 215 178 179 179 188
244 246 351 288 260 252 266 260 253 269 220 254 233 246 273 283 274 305 296 258 197 207 205 188 214 215 217 229 203 203 210 222 223 222 223 233 244 225 195 243 193 202 166 194 191
265 193 279 277 274 270 232 267 296 306 288 242 262 241 244 254 348 313 323 307 304 211 198 185 209 211 219 213 227 222 206 212 221 223 225 225 229 245 232 208 230 202 176 201 194